Change the Weather History Date:

Monday, October 25, 2010

  Actual Average Record
Temperature  
Mean Temperature 80 °F 73 °F  
Max Temperature 90 °F 83 °F 96 °F (1919)
Min Temperature 69 °F 64 °F 38 °F (1937)
Degree Days  
Heating Degree Days 0 0  
Month to date heating degree days 0 0  
Since 1 July heating degree days 0 0  
Cooling Degree Days 15 9  
Month to date cooling degree days 220 284  
Year to date cooling degree days 3165 3160  
Growing Degree Days 29 (Base 50)    
Moisture  
Dew Point 70 °F    
Average Humidity 72    
Maximum Humidity 100    
Minimum Humidity 44    
Precipitation  
Precipitation 0.00 in 0.07 in 1.72 in (1921)
Month to date precipitation 0.00 2.87  
Year to date precipitation 43.26 45.54  
Sea Level Pressure  
Sea Level Pressure 30.00 in    
Wind  
Wind Speed 7 mph (SE)    
Max Wind Speed 18 mph    
Max Gust Speed 23 mph    
Visibility 10 miles    
Events      
T = Trace of Precipitation, MM = Missing Value Source: NWS Daily Summary

Daily Weather History Graph

Daily Weather History Graph

Search for Another Location

Airport or City:

Trip Planner

Search our weather history database for the weather conditions in past years. The results will help you decide how hot, cold, wet, or windy it might be!

Date:

Astronomy

Oct. 25, 2010 Rise Set
Actual Time 7:32 AM EDT 6:46 PM EDT
Civil Twilight 7:08 AM EDT 7:10 PM EDT
Nautical Twilight 6:40 AM EDT 7:37 PM EDT
Astronomical Twilight 6:13 AM EDT 8:05 PM EDT
Moon 8:31 PM EDT (10/25) 9:56 AM EDT (10/25)
Length of Visible Light 12h 01m
Length of Day
11h 13m
Waning Gibbous, 93% of the Moon is Illuminated
Oct 25
Waning Gibbous
Oct 30
Last Quarter
Nov 6
New
Nov 13
First Quarter
Nov 21
Full

Hourly Weather History & Observations

Time (EDT) Temp. Heat Index Dew Point Humidity Pressure Visibility Wind Dir Wind Speed Gust Speed Precip Events Conditions
12:53 AM 72.0 °F - 70.0 °F 93% 30.06 in 10.0 mi ESE 3.5 mph - N/A   Clear
1:53 AM 72.0 °F - 69.1 °F 91% 30.05 in 10.0 mi SE 4.6 mph - N/A   Partly Cloudy
2:53 AM 71.1 °F - 69.1 °F 93% 30.04 in 10.0 mi ESE 4.6 mph - N/A   Scattered Clouds
3:53 AM 71.1 °F - 68.0 °F 90% 30.01 in 10.0 mi ESE 3.5 mph - N/A   Clear
4:53 AM 70.0 °F - 68.0 °F 93% 30.01 in 10.0 mi Calm Calm - N/A   Partly Cloudy
5:53 AM 69.1 °F - 68.0 °F 96% 30.03 in 10.0 mi East 3.5 mph - N/A   Scattered Clouds
6:53 AM 71.1 °F - 69.1 °F 93% 30.03 in 10.0 mi ENE 4.6 mph - N/A   Mostly Cloudy
7:53 AM 70.0 °F - 69.1 °F 97% 30.04 in 10.0 mi East 4.6 mph - N/A   Scattered Clouds
8:53 AM 73.0 °F - 71.1 °F 93% 30.03 in 10.0 mi ESE 4.6 mph - N/A   Partly Cloudy
9:53 AM 79.0 °F - 71.1 °F 77% 30.04 in 10.0 mi SSE 9.2 mph - N/A   Partly Cloudy
10:53 AM 84.0 °F 89.6 °F 72.0 °F 67% 30.04 in 10.0 mi SSE 9.2 mph 19.6 mph N/A   Scattered Clouds
11:53 AM 84.9 °F 90.1 °F 71.1 °F 63% 30.01 in 10.0 mi South 11.5 mph - N/A   Scattered Clouds
12:53 PM 88.0 °F 92.1 °F 69.1 °F 53% 30.01 in 10.0 mi SSE 11.5 mph 21.9 mph N/A   Scattered Clouds
1:53 PM 87.1 °F 90.6 °F 68.0 °F 53% 29.99 in 10.0 mi South 10.4 mph - N/A   Mostly Cloudy
2:53 PM 88.0 °F 90.7 °F 66.9 °F 49% 29.96 in 10.0 mi South 10.4 mph - N/A   Mostly Cloudy
3:53 PM 89.1 °F 91.0 °F 64.9 °F 45% 29.94 in 10.0 mi SSW 11.5 mph 18.4 mph N/A   Mostly Cloudy
4:53 PM 88.0 °F 89.6 °F 64.9 °F 46% 29.93 in 10.0 mi SSW 12.7 mph - N/A   Mostly Cloudy
5:53 PM 87.1 °F 89.2 °F 66.0 °F 49% 29.92 in 10.0 mi SSE 11.5 mph - N/A   Mostly Cloudy
6:53 PM 81.0 °F 84.9 °F 71.1 °F 72% 29.93 in 10.0 mi SE 9.2 mph 17.3 mph N/A   Scattered Clouds
7:53 PM 78.1 °F - 73.0 °F 84% 29.94 in 10.0 mi ESE 5.8 mph - N/A   Scattered Clouds
8:53 PM 77.0 °F - 73.0 °F 88% 29.95 in 10.0 mi SE 5.8 mph - N/A   Scattered Clouds
9:53 PM 75.9 °F - 72.0 °F 87% 29.96 in 10.0 mi SE 6.9 mph - N/A   Partly Cloudy
10:53 PM 75.0 °F - 72.0 °F 90% 29.99 in 10.0 mi SE 6.9 mph - N/A   Partly Cloudy
11:53 PM 73.9 °F - 72.0 °F 93% 29.99 in 10.0 mi SSE 6.9 mph - N/A   Partly Cloudy